When you browse on this site, cookies collect data to enhance your experience and personalize the content and advertising you see.
Visit our Privacy Policy to learn more. By continuing to use the site, you agree to this use of cookies and data.
  • In Sweden
  • List of Countries
  • For 7 days
  • Water Temperature
  • Satellite Maps
  • Weather Map
  • Weather Widgets
  • user-avatar
    Login

    Hourly Weather Albany

    Today, 17 June, Monday

    Time Temperature Precipitation Wind Pressure Humidity
    00:00 +10°C° 0 mm 5 mps 766 mmHg 79%
    01:00 +10°C° 0 mm 5 mps 766 mmHg 76%
    02:00 +11°C° 0 mm 4 mps 766 mmHg 72%
    03:00 +11°C° 0 mm 4 mps 766 mmHg 71%
    04:00 +11°C° 0 mm 4 mps 767 mmHg 70%
    05:00 +11°C° 0 mm 4 mps 767 mmHg 68%
    06:00 +11°C° 0 mm 4 mps 768 mmHg 69%
    07:00 +11°C° 0 mm 4 mps 768 mmHg 69%
    08:00 +11°C° 0 mm 3 mps 768 mmHg 71%
    09:00 +11°C° 0 mm 3 mps 768 mmHg 70%
    10:00 +12°C° 0 mm 3 mps 769 mmHg 70%
    11:00 +13°C° 0 mm 2 mps 769 mmHg 69%
    12:00 +13°C° 0 mm 2 mps 768 mmHg 68%
    13:00 +13°C° 0 mm 2 mps 768 mmHg 67%
    14:00 +14°C° 0 mm 2 mps 767 mmHg 65%
    15:00 +13°C° 0 mm 2 mps 768 mmHg 67%
    16:00 +13°C° 0 mm 2 mps 768 mmHg 70%
    17:00 +12°C° 0 mm 1 mps 768 mmHg 72%
    18:00 +12°C° 0 mm 1 mps 768 mmHg 71%
    19:00 +12°C° 0 mm 1 mps 768 mmHg 70%
    20:00 +11°C° 0 mm 0 mps 768 mmHg 69%
    21:00 +12°C° 0 mm 1 mps 768 mmHg 70%
    22:00 +11°C° 0 mm 1 mps 768 mmHg 71%
    23:00 +11°C° 0 mm 1 mps 768 mmHg 72%

    Tomorrow, 18 June, Tuesday

    Time Temperature Precipitation Wind Pressure Humidity
    00:00 +11°C° 0 mm 1 mps 768 mmHg 72%
    01:00 +10°C° 0 mm 2 mps 767 mmHg 72%
    02:00 +10°C° 0 mm 2 mps 767 mmHg 72%
    03:00 +9°C° 0 mm 2 mps 767 mmHg 74%
    04:00 +9°C° 0 mm 2 mps 767 mmHg 75%
    05:00 +8°C° 0 mm 3 mps 767 mmHg 77%
    06:00 +8°C° 0 mm 3 mps 767 mmHg 77%
    07:00 +8°C° 0 mm 3 mps 767 mmHg 77%
    08:00 +8°C° 0 mm 3 mps 767 mmHg 77%
    09:00 +8°C° 0 mm 4 mps 767 mmHg 70%
    10:00 +11°C° 0 mm 4 mps 767 mmHg 64%
    11:00 +13°C° 0 mm 4 mps 767 mmHg 57%
    12:00 +13°C° 0 mm 4 mps 766 mmHg 55%
    13:00 +14°C° 0 mm 3 mps 765 mmHg 54%
    14:00 +14°C° 0 mm 3 mps 765 mmHg 52%
    15:00 +13°C° 0 mm 3 mps 765 mmHg 59%
    16:00 +13°C° 0 mm 2 mps 765 mmHg 65%
    17:00 +12°C° 0 mm 2 mps 765 mmHg 72%
    18:00 +10°C° 0 mm 2 mps 765 mmHg 75%
    19:00 +9°C° 0 mm 2 mps 765 mmHg 78%
    20:00 +9°C° 0 mm 2 mps 765 mmHg 81%
    21:00 +8°C° 0 mm 2 mps 765 mmHg 82%
    22:00 +8°C° 0 mm 2 mps 765 mmHg 83%
    23:00 +8°C° 0 mm 2 mps 765 mmHg 84%

    Day after tomorrow, 19 June, Wednesday

    Time Temperature Precipitation Wind Pressure Humidity
    00:00 +7°C° 0 mm 3 mps 765 mmHg 85%
    01:00 +7°C° 0 mm 3 mps 765 mmHg 85%
    02:00 +7°C° 0 mm 3 mps 765 mmHg 86%
    03:00 +7°C° 0 mm 3 mps 765 mmHg 86%
    04:00 +7°C° 0 mm 3 mps 765 mmHg 87%
    05:00 +7°C° 0 mm 3 mps 765 mmHg 87%
    06:00 +7°C° 0 mm 3 mps 765 mmHg 86%
    07:00 +7°C° 0 mm 3 mps 765 mmHg 84%
    08:00 +7°C° 0 mm 3 mps 765 mmHg 83%
    09:00 +9°C° 0 mm 3 mps 765 mmHg 74%
    10:00 +12°C° 0 mm 2 mps 765 mmHg 65%
    11:00 +14°C° 0 mm 2 mps 765 mmHg 56%
    12:00 +15°C° 0 mm 2 mps 765 mmHg 53%
    13:00 +15°C° 0 mm 2 mps 764 mmHg 50%
    14:00 +16°C° 0 mm 2 mps 764 mmHg 47%
    15:00 +14°C° 0 mm 2 mps 764 mmHg 52%
    16:00 +13°C° 0 mm 1 mps 764 mmHg 56%
    17:00 +12°C° 0 mm 1 mps 764 mmHg 60%
    18:00 +11°C° 0 mm 1 mps 764 mmHg 63%
    19:00 +10°C° 0 mm 1 mps 764 mmHg 65%
    20:00 +8°C° 0 mm 2 mps 764 mmHg 68%
    21:00 +8°C° 0 mm 2 mps 764 mmHg 68%
    22:00 +8°C° 0 mm 2 mps 764 mmHg 68%
    23:00 +7°C° 0 mm 2 mps 764 mmHg 68%

    20 June, Thursday

    Time Temperature Precipitation Wind Pressure Humidity
    00:00 +7°C° 0 mm 2 mps 764 mmHg 67%
    01:00 +7°C° 0 mm 2 mps 764 mmHg 67%
    02:00 +7°C° 0 mm 3 mps 764 mmHg 66%
    03:00 +7°C° 0 mm 3 mps 764 mmHg 67%
    04:00 +7°C° 0 mm 2 mps 764 mmHg 68%
    05:00 +6°C° 0 mm 2 mps 764 mmHg 69%
    06:00 +6°C° 0 mm 2 mps 764 mmHg 69%
    07:00 +6°C° 0 mm 2 mps 764 mmHg 69%
    08:00 +6°C° 0 mm 2 mps 764 mmHg 69%
    09:00 +9°C° 0 mm 3 mps 764 mmHg 62%
    10:00 +11°C° 0 mm 3 mps 764 mmHg 55%
    11:00 +13°C° 0 mm 3 mps 764 mmHg 48%
    12:00 +14°C° 0 mm 4 mps 763 mmHg 46%
    13:00 +14°C° 0 mm 4 mps 762 mmHg 45%
    14:00 +15°C° 0 mm 5 mps 761 mmHg 43%
    15:00 +14°C° 0 mm 5 mps 761 mmHg 47%
    16:00 +13°C° 0 mm 5 mps 761 mmHg 51%
    17:00 +12°C° 0 mm 5 mps 761 mmHg 54%
    18:00 +12°C° 0 mm 5 mps 761 mmHg 56%
    19:00 +12°C° 0 mm 5 mps 761 mmHg 57%
    20:00 +11°C° 0 mm 6 mps 761 mmHg 59%
    21:00 +11°C° 0 mm 6 mps 761 mmHg 56%
    22:00 +11°C° 0 mm 6 mps 761 mmHg 54%
    23:00 +11°C° 0 mm 6 mps 761 mmHg 52%

    21 June, Friday

    Time Temperature Precipitation Wind Pressure Humidity
    00:00 +11°C° 0 mm 6 mps 760 mmHg 50%
    01:00 +11°C° 0 mm 6 mps 759 mmHg 49%
    02:00 +11°C° 0 mm 6 mps 759 mmHg 47%
    03:00 +11°C° 0 mm 6 mps 759 mmHg 48%
    04:00 +11°C° 0 mm 6 mps 758 mmHg 49%
    05:00 +11°C° 0 mm 6 mps 758 mmHg 50%
    06:00 +11°C° 0 mm 6 mps 758 mmHg 53%
    07:00 +10°C° 0 mm 5 mps 758 mmHg 57%
    08:00 +10°C° 0 mm 5 mps 758 mmHg 60%
    09:00 +13°C° 0 mm 5 mps 757 mmHg 58%
    10:00 +15°C° 0 mm 5 mps 757 mmHg 56%
    11:00 +17°C° 0 mm 5 mps 757 mmHg 54%
    12:00 +19°C° 0 mm 5 mps 756 mmHg 54%
    13:00 +20°C° 0 mm 4 mps 755 mmHg 54%
    14:00 +21°C° 0 mm 4 mps 755 mmHg 53%
    15:00 +19°C° 0 mm 3 mps 755 mmHg 58%
    16:00 +18°C° 0 mm 3 mps 755 mmHg 63%
    17:00 +17°C° 0 mm 2 mps 755 mmHg 69%
    18:00 +16°C° 0 mm 3 mps 755 mmHg 71%
    19:00 +14°C° 0 mm 3 mps 755 mmHg 74%
    20:00 +13°C° 0 mm 3 mps 755 mmHg 77%
    21:00 +13°C° 0 mm 3 mps 755 mmHg 81%
    22:00 +12°C° 0 mm 3 mps 755 mmHg 84%
    23:00 +11°C° 0 mm 3 mps 755 mmHg 88%

    22 June, Saturday

    Time Temperature Precipitation Wind Pressure Humidity
    00:00 +11°C° 0 mm 3 mps 755 mmHg 89%
    01:00 +11°C° 0 mm 4 mps 754 mmHg 89%
    02:00 +11°C° 0 mm 4 mps 754 mmHg 90%
    03:00 +11°C° 0 mm 4 mps 754 mmHg 88%
    04:00 +12°C° 0 mm 5 mps 754 mmHg 87%
    05:00 +12°C° 0 mm 5 mps 754 mmHg 85%
    06:00 +12°C° 0 mm 5 mps 753 mmHg 83%
    07:00 +13°C° 0 mm 6 mps 753 mmHg 80%
    08:00 +13°C° 0 mm 6 mps 753 mmHg 77%
    09:00 +15°C° 0 mm 6 mps 753 mmHg 73%
    10:00 +16°C° 0 mm 7 mps 753 mmHg 70%
    11:00 +18°C° 0 mm 7 mps 752 mmHg 66%
    12:00 +18°C° 0 mm 7 mps 752 mmHg 66%
    13:00 +18°C° 0 mm 7 mps 751 mmHg 66%
    14:00 +20°C° 0 mm 7 mps 751 mmHg 66%
    15:00 +19°C° 0.3 mm 6 mps 751 mmHg 72%
    16:00 +17°C° 0.3 mm 6 mps 750 mmHg 78%
    17:00 +16°C° 0.3 mm 5 mps 750 mmHg 84%
    18:00 +15°C° 2 mm 6 mps 750 mmHg 87%
    19:00 +15°C° 2 mm 7 mps 750 mmHg 89%
    20:00 +15°C° 2 mm 8 mps 750 mmHg 91%
    21:00 +15°C° 0.7 mm 7 mps 750 mmHg 91%
    22:00 +14°C° 0.7 mm 7 mps 750 mmHg 91%
    23:00 +14°C° 0.7 mm 6 mps 750 mmHg 90%
    Show more